EW3719 Weather Reports


Display with metric or nautical units.
time (UTC)temp
F
wind
direction
speed
MPH
gust
MPH
rain 1hr
in
rain 24hr
in
rain mn
in
humidity
%
barometer
mb
20260902023019 67 105 0.0 0.0 0.00 1.49 1.49 86 1015.2
20260902021520 68 83 0.0 0.0 0.00 1.49 1.49 85 1015.3
20260902020015 68 73 0.0 0.0 0.00 1.49 1.49 86 1015.3
20260902014522 68 119 0.0 1.0 0.00 1.49 1.49 85 1015.1
20260902013014 69 44 0.0 2.0 0.00 1.49 1.49 85 1015.0
20260902011521 69 75 0.0 1.0 0.00 1.49 1.49 86 1014.7
20260902010024 70 103 0.0 3.0 0.00 1.49 1.49 85 1014.6
20260902004517 70 37 0.0 5.0 0.00 1.49 1.49 83 1014.6
20260902003012 71 44 0.0 4.0 0.00 1.49 1.49 82 1014.5
20260902001511 72 59 1.0 5.0 0.00 1.49 1.49 82 1014.5
20260902000017 73 62 2.0 7.0 0.00 1.49 1.49 81 1014.3
20260901234511 73 53 3.0 11.0 0.00 1.49 1.49 83 1014.8
20260901233012 74 41 3.0 9.0 0.00 1.49 1.49 86 1014.8
20260901231508 74 28 0.0 2.0 0.00 1.49 1.49 88 1014.6
20260901230014 74 46 0.0 3.0 0.00 1.49 1.49 88 1014.6
20260901224507 74 6 0.0 3.0 0.00 1.49 1.49 87 1014.6
20260901223016 75 355 1.0 3.0 0.00 1.49 1.49 86 1014.5
20260901221506 75 302 1.0 5.0 0.00 1.49 1.49 85 1014.5
20260901220007 75 327 2.0 5.0 0.00 1.49 1.49 84 1014.4
20260901214504 76 325 1.0 4.0 0.00 1.49 1.49 83 1014.3
20260901213004 77 44 2.0 5.0 0.00 1.49 1.49 81 1014.1
20260901211508 77 1 2.0 5.0 0.00 1.49 1.49 80 1014.2
20260901210002 77 39 1.0 5.0 0.00 1.49 1.49 80 1014.2
20260901204601 77 39 2.0 4.0 0.00 1.49 1.49 81 1014.0
20260901203105 76 70 0.0 2.0 0.00 1.49 1.49 83 1014.0
20260901201558 76 65 0.0 4.0 0.00 1.49 1.49 83 1014.0
20260901200106 76 49 1.0 5.0 0.00 1.49 1.49 82 1014.1
20260901194603 77 82 2.0 6.0 0.00 1.49 1.49 80 1014.1
20260901193102 76 69 2.0 5.0 0.00 1.49 1.49 82 1014.2
20260901191555 76 113 0.0 7.0 0.00 1.49 1.49 82 1014.1
20260901190107 76 100 2.0 6.0 0.00 1.49 1.49 82 1014.1
20260901184557 76 74 1.0 7.0 0.00 1.49 1.49 82 1014.1
20260901183053 76 86 2.0 8.0 0.00 1.49 1.49 81 1014.2
20260901181550 75 101 0.0 5.0 0.00 1.49 1.49 83 1014.3
20260901180049 75 81 2.0 5.0 0.00 1.49 1.49 83 1014.3
20260901174558 74 65 5.0 11.0 0.00 1.49 1.49 83 1014.4
20260901173048 74 54 2.0 10.0 0.00 1.49 1.49 86 1014.3
20260901171544 73 72 6.0 13.0 0.00 1.49 1.49 85 1014.1
20260901170129 73 56 7.0 11.0 0.00 1.49 1.49 86 1014.2
20260901164540 73 66 4.0 11.0 0.00 1.49 1.49 87 1014.4
20260901163038 72 91 4.0 9.0 0.00 1.49 1.49 89 1014.4
20260901161537 71 65 5.0 9.0 0.00 1.49 1.49 89 1014.5
20260901160036 70 72 7.0 11.0 0.00 1.49 1.49 89 1014.5
20260901154530 69 65 6.0 12.0 0.00 1.49 1.49 91 1014.6
20260901153028 69 92 7.0 13.0 0.00 1.49 1.49 91 1014.6
20260901151525 68 65 4.0 10.0 0.00 1.49 1.49 94 1014.6
20260901150024 67 56 3.0 11.0 0.00 1.49 1.49 95 1014.8
20260901144522 66 46 6.0 13.0 0.00 1.49 1.49 96 1015.0
20260901143022 66 34 7.0 13.0 0.00 1.49 1.49 96 1014.8
20260901141523 66 50 7.0 12.0 0.00 1.49 1.49 97 1014.8
20260901140027 67 54 7.0 11.0 0.00 1.49 1.49 97 1014.7
20260901134520 67 52 6.0 12.0 0.00 1.49 1.49 98 1014.5
20260901133019 67 24 6.0 10.0 0.00 1.49 1.49 98 1014.4
20260901131529 67 74 2.0 4.0 0.01 1.49 1.49 99 1014.2
20260901130016 66 120 6.0 11.0 0.02 1.49 1.49 99 1013.3
20260901124513 65 153 8.0 22.0 0.05 1.49 1.49 99 1012.6
20260901123011 64 193 10.0 22.0 0.20 1.49 1.49 99 1011.9
20260901121507 64 152 9.0 17.0 0.20 1.48 1.48 100 1012.8
20260901120004 64 146 1.0 6.0 0.19 1.47 1.47 100 1015.3
20260901114504 64 94 2.0 6.0 0.16 1.44 1.44 100 1014.8
20260901113005 64 79 2.0 7.0 0.02 1.29 1.29 100 1014.9
20260901111503 64 91 3.0 9.0 0.01 1.28 1.28 100 1014.7
20260901110002 64 78 3.0 9.0 0.01 1.28 1.28 99 1014.5
20260901104501 64 72 4.0 9.0 0.06 1.28 1.28 100 1014.6
20260901103059 64 72 2.0 5.0 0.10 1.27 1.27 99 1014.7
20260901101607 64 70 2.0 7.0 0.13 1.27 1.27 99 1014.6
20260901100108 64 112 2.0 7.0 0.17 1.27 1.27 99 1014.6
20260901094602 64 89 1.0 4.0 0.17 1.22 1.22 99 1015.0
20260901093056 64 51 0.0 4.0 0.28 1.17 1.17 99 1014.9
20260901091555 64 59 0.0 2.0 0.34 1.13 1.13 99 1014.8
20260901084607 64 100 1.0 4.0 0.50 1.05 1.05 99 1014.9
20260901083054 64 231 1.0 2.0 0.38 0.88 0.88 99 1015.5
20260901081553 64 144 1.0 6.0 0.47 0.80 0.80 99 1014.6
20260901080054 64 95 0.0 6.0 0.48 0.69 0.69 98 1015.0
20260901074549 64 23 1.0 4.0 0.45 0.56 0.55 98 1015.2
20260901073049 63 129 1.0 7.0 0.43 0.51 0.50 98 1014.9
20260901071547 64 106 0.0 0.0 0.28 0.34 0.33 97 1015.6
20260901070047 64 106 0.0 0.0 0.19 0.21 0.20 97 1015.5
20260901064545 64 115 0.0 6.0 0.10 0.11 0.10 97 1015.3
20260901063043 64 84 3.0 7.0 0.07 0.08 0.07 97 1014.9
20260901061551 64 102 1.0 4.0 0.05 0.06 0.05 97 1015.5
20260901060046 64 106 0.0 3.0 0.01 0.02 0.01 96 1015.8
20260901054539 64 51 2.0 5.0 0.00 0.01 0.00 97 1016.1
20260901053049 64 92 0.0 1.0 0.00 0.01 0.00 97 1015.8
20260901051540 64 115 2.0 3.0 0.00 0.01 0.00 98 1015.5
20260901050040 64 144 0.0 2.0 0.00 0.01 0.00 98 1015.7
20260901044536 64 129 0.0 2.0 0.00 0.01 0.00 98 1015.7
20260901043034 64 141 0.0 0.0 0.00 0.01 0.00 98 1015.7
20260901041532 64 124 0.0 0.0 0.00 0.01 0.00 98 1016.1
20260901040034 64 124 0.0 0.0 0.00 0.01 0.00 98 1016.2
20260901034534 64 93 0.0 0.0 0.00 0.01 0.01 98 1016.2
20260901033028 64 93 0.0 0.0 0.00 0.01 0.01 98 1016.4
20260901031544 64 101 0.0 0.0 0.00 0.01 0.01 98 1016.2
20260901030029 64 139 0.0 0.0 0.00 0.01 0.01 98 1016.0
20260901024527 65 162 0.0 2.0 0.00 0.01 0.01 97 1016.4